Chur/Vaduz, Switzerland

7:54 AM CEST on July 21, 2017 (GMT +0200)
Chur/Vaduz

Weather History for 06786 - April, 2014

Change the Weather History Date:

Friday, April 4, 2014

  Actual Average Record
Temperature  
Mean Temperature 58 °F -  
Max Temperature 68 °F - - ()
Min Temperature 47 °F - - ()
Degree Days  
Heating Degree Days 8    
Growing Degree Days 8 (Base 50)    
Moisture  
Dew Point 35 °F    
Average Humidity 32    
Maximum Humidity 46    
Minimum Humidity 17    
Precipitation  
Precipitation 0.00 in - - ()
Sea Level Pressure  
Sea Level Pressure 29.71 in    
Wind  
Wind Speed 8 mph ()    
Max Wind Speed 17 mph    
Max Gust Speed -    
Visibility 8.8 miles    
Events      
T = Trace of Precipitation, MM = Missing Value Source: Averaged Metar Reports

Daily Weather History Graph

Daily Weather History Graph

Search for Another Location

Airport or City:

Trip Planner

Search our weather history database for the weather conditions in past years. The results will help you decide how hot, cold, wet, or windy it might be!

Date:

Astronomy

Apr. 04, 2014 Rise Set
Actual Time 6:55 AM CEST 7:54 PM CEST
Civil Twilight 6:24 AM CEST 8:25 PM CEST
Nautical Twilight 5:47 AM CEST 9:03 PM CEST
Astronomical Twilight 5:08 AM CEST 9:42 PM CEST
Moon 9:45 AM CEST (4/4) 12:11 AM CEST (4/4)
Length of Visible Light 14h 01m
Length of Day
12h 59m
Waxing Crescent, 23% of the Moon is Illuminated
Apr 4
Waxing Crescent
Apr 7
First Quarter
Apr 15
Full
Apr 22
Last Quarter
Apr 29
New

Hourly Weather History & Observations

Time (CEST) Temp. Dew Point Humidity Pressure Visibility Wind Dir Wind Speed Gust Speed Precip Events Conditions
12:00 AM 54 °F 30 °F 27% 29.76 in - South 8.1 mph - -  
1:00 AM 53 °F 31 °F 30% 29.76 in - South 10.4 mph - -  
2:00 AM 53 °F 32 °F 32% 29.77 in - South 10.4 mph - -  
3:00 AM 54 °F 30 °F 28% 29.76 in - South 9.2 mph - -  
4:00 AM 51 °F 32 °F 36% 29.77 in - SSW 5.8 mph - -  
6:00 AM 49 °F 34 °F 43% 29.77 in - South 8.1 mph - -  
7:00 AM 48 °F 34 °F 46% 29.77 in - SSW 8.1 mph - -  
8:00 AM 49 °F 34 °F 44% 29.77 in 10 mi South 9.2 mph - -  
9:00 AM 51 °F 35 °F 43% 29.76 in - SSW 4.6 mph - -  
10:00 AM 54 °F 36 °F 39% 29.74 in - SSW 8.1 mph - -  
11:00 AM 61 °F 36 °F 28% 29.69 in 7 mi South 6.9 mph - -   Haze
12:00 PM 65 °F 35 °F 22% 29.65 in - SSW 4.6 mph - -  
1:00 PM 69 °F 34 °F 17% 29.62 in - ENE 2.3 mph - -  
2:00 PM 67 °F 38 °F 23% 29.62 in 9 mi NNE 15.0 mph - -   Haze
3:00 PM 67 °F 38 °F 23% 29.61 in - NNE 17.3 mph - -  
4:00 PM 66 °F 35 °F 21% 29.61 in - NNE 16.1 mph - -  
5:00 PM 65 °F 37 °F 25% 29.62 in 9 mi NNE 12.7 mph - -   Haze
6:00 PM 64 °F 36 °F 24% 29.64 in - NNE 12.7 mph - -  
7:00 PM 61 °F 38 °F 31% 29.67 in - NNE 12.7 mph - -  
8:00 PM 60 °F 39 °F 33% 29.70 in 9 mi NNE 10.4 mph - -   Haze
9:00 PM 58 °F 40 °F 39% 29.74 in - NE 8.1 mph - -  
10:00 PM 58 °F 40 °F 39% 29.76 in - NNE 8.1 mph - -  
11:00 PM 56 °F 41 °F 45% 29.78 in 9 mi NE 6.9 mph - -   Mostly Cloudy